| time (UTC) | temp F | wind direction | speed knots | gust knots | rain 1hr in | rain 24hr in | rain mn in | humidity % | barometer mb |
| 20260502184003 | 72 | 144 | 0.0 | 0.0 | 0.00 | 3.20 | 0.00 | 44 | 1021.7 |
| 20260502182003 | 73 | 217 | 0.9 | 2.6 | 0.00 | 3.20 | 0.00 | 55 | 1022.0 |
| 20260502164003 | 69 | 352 | 0.0 | 0.0 | 0.00 | 3.20 | 0.00 | 61 | 1022.7 |
| 20260502162003 | 68 | 240 | 0.0 | 0.0 | 0.00 | 3.20 | 0.00 | 61 | 1023.0 |
| 20260502152003 | 59 | 4 | 0.0 | 0.0 | 0.00 | 3.20 | 0.00 | 99 | 1022.4 |
| 20260502121333 | 51 | 317 | 0.0 | 0.0 | 0.00 | 3.20 | 0.00 | 99 | 1020.7 |
| 20260502115306 | 50 | 359 | 0.0 | 0.0 | 0.00 | 3.20 | 0.00 | 99 | 1020.3 |
| 20260502113402 | 50 | 344 | 0.0 | 0.0 | 0.00 | 3.20 | 0.00 | 99 | 1020.0 |
| 20260502111302 | 50 | 253 | 0.0 | 0.0 | 0.00 | 3.20 | 0.00 | 99 | 1019.3 |
| 20260502105305 | 50 | 244 | 0.0 | 0.0 | 0.00 | 3.20 | 0.00 | 99 | 1019.0 |
| 20260502103403 | 50 | 260 | 0.0 | 0.0 | 0.00 | 3.20 | 0.00 | 99 | 1019.0 |
| 20260502101303 | 50 | 262 | 0.0 | 0.0 | 0.00 | 3.20 | 0.00 | 99 | 1019.0 |
| 20260502091302 | 52 | 226 | 0.0 | 0.0 | 0.00 | 3.20 | 0.00 | 99 | 1018.6 |
| 20260502071303 | 52 | 289 | 0.0 | 0.0 | 0.00 | 3.20 | 0.00 | 99 | 1018.3 |
| 20260502065306 | 52 | 283 | 0.0 | 0.0 | 0.00 | 3.20 | 0.00 | 99 | 1018.6 |
| 20260502063402 | 51 | 271 | 0.0 | 0.0 | 0.00 | 3.20 | 0.00 | 99 | 1018.6 |
| 20260502060602 | 52 | 267 | 0.0 | 0.0 | 0.00 | 3.20 | 0.00 | 99 | 1019.0 |
| 20260502054703 | 51 | 284 | 0.0 | 0.0 | 0.00 | 3.20 | 0.00 | 99 | 1019.3 |
| 20260502052702 | 52 | 275 | 0.0 | 0.0 | 0.00 | 3.20 | 0.00 | 99 | 1019.3 |
| 20260502050603 | 51 | 275 | 0.0 | 0.0 | 0.00 | 3.20 | 0.00 | 99 | 1019.3 |
| 20260502044733 | 51 | 282 | 0.0 | 0.0 | 0.00 | 2.04 | 1.60 | 99 | 1019.3 |
| 20260502042703 | 51 | 254 | 0.0 | 0.0 | 0.00 | 2.02 | 1.58 | 99 | 1019.6 |
| 20260502040603 | 51 | 248 | 0.0 | 0.0 | 0.00 | 2.02 | 1.58 | 99 | 1019.3 |
| 20260502034703 | 51 | 276 | 0.0 | 0.0 | 0.00 | 2.02 | 1.58 | 99 | 1019.3 |
| 20260502032702 | 51 | 254 | 0.0 | 0.0 | 0.00 | 2.01 | 1.57 | 99 | 1019.0 |
| 20260502030603 | 51 | 275 | 0.0 | 0.0 | 0.07 | 1.99 | 1.56 | 99 | 1019.0 |
| 20260502024702 | 51 | 254 | 0.0 | 0.0 | 0.00 | 1.99 | 1.55 | 99 | 1018.6 |
| 20260502022703 | 51 | 307 | 0.0 | 0.0 | 0.07 | 1.98 | 1.55 | 99 | 1018.3 |
| 20260502020633 | 51 | 275 | 0.0 | 0.0 | 0.00 | 1.98 | 1.54 | 99 | 1018.6 |
| 20260502014733 | 51 | 269 | 0.0 | 0.0 | 0.00 | 1.98 | 1.54 | 99 | 1017.6 |
| 20260502012702 | 51 | 248 | 0.0 | 0.0 | 0.00 | 1.98 | 1.54 | 99 | 1016.3 |
| 20260502010602 | 51 | 280 | 0.0 | 0.0 | 0.00 | 1.96 | 1.52 | 99 | 1016.9 |
| 20260502004704 | 52 | 295 | 0.0 | 0.0 | 0.07 | 1.95 | 1.51 | 99 | 1016.9 |
| 20260502002702 | 53 | 351 | 0.0 | 0.0 | 0.07 | 1.92 | 1.49 | 99 | 1017.3 |
| 20260502000603 | 53 | 334 | 0.0 | 0.0 | 0.07 | 1.88 | 1.45 | 99 | 1018.3 |
| 20260501234703 | 53 | 307 | 0.0 | 0.0 | 0.14 | 1.83 | 1.42 | 99 | 1017.9 |
| 20260501232702 | 53 | 271 | 0.0 | 0.0 | 0.14 | 1.79 | 1.36 | 99 | 1017.6 |
| 20260501230603 | 53 | 23 | 0.0 | 0.0 | 0.14 | 1.74 | 1.31 | 99 | 1017.6 |
| 20260501224703 | 53 | 304 | 0.0 | 0.0 | 0.00 | 1.72 | 1.28 | 99 | 1017.3 |
| 20260501222703 | 53 | 282 | 0.0 | 0.0 | 0.07 | 1.69 | 1.26 | 99 | 1016.9 |
| 20260501220603 | 54 | 281 | 0.0 | 0.0 | 0.07 | 1.66 | 1.23 | 99 | 1016.9 |
| 20260501214003 | 54 | 8 | 0.0 | 0.0 | 0.00 | 1.66 | 1.22 | 99 | 1015.2 |
| 20260501212003 | 54 | 320 | 2.6 | 2.6 | 0.00 | 1.66 | 1.22 | 99 | 1013.9 |
| 20260501205306 | 54 | 137 | 0.9 | 11.3 | 0.07 | 1.65 | 1.22 | 99 | 1013.5 |
| 20260501203402 | 54 | 277 | 0.0 | 0.0 | 0.00 | 1.65 | 1.21 | 99 | 1013.9 |
| 20260501201303 | 53 | 269 | 0.0 | 0.0 | 0.00 | 1.63 | 1.19 | 99 | 1015.6 |
| 20260501195305 | 53 | 338 | 0.0 | 0.0 | 0.07 | 1.60 | 1.17 | 99 | 1015.9 |
| 20260501193402 | 52 | 341 | 0.0 | 0.0 | 0.00 | 1.59 | 1.15 | 99 | 1016.9 |
| 20260501191302 | 53 | 304 | 0.0 | 0.0 | 0.07 | 1.56 | 1.13 | 99 | 1017.9 |
| 20260501185305 | 53 | 116 | 0.0 | 0.0 | 0.07 | 1.55 | 1.12 | 99 | 1017.9 |